Regional Weather Roundup
Issued by NWS Charleston, WV

Home | Current Version | Previous Version | Text Only | Print | Product List | Glossary Off
Versions: 1 2 3 4 5 6 7 8 9 10 11 12 13 14 15 16 17 18 19 20 21 22 23 24 25 26 27 28 29 30 31 32 33 34 35 36 37 38 39 40 41 42 43 44 45 46 47 48 49 50

000
ASUS41 KRLX 111610
RWRRLX
West Virginia Regional Weather Roundup
National Weather Service Charleston WV
1100 AM EST THU FEB 11 2016

Note: "fair" indicates few or no clouds below 12,000 feet with no
significant weather and/or obstructions to visibility.

WVZ003-111700-
Northern Panhandle of West Virginia

CITY           SKY/WX    TMP DP  RH WIND       PRES   REMARKS
WHEELING       CLOUDY    15   4  61 W21       30.16R WCI  -2
$$

WVZ009-111700-
Northwest West Virginia

CITY           SKY/WX    TMP DP  RH WIND       PRES   REMARKS
PARKERSBURG      N/A     18   5  57 NW12      30.27S WCI   5
$$

WVZ006-111700-
Western West Virginia

CITY           SKY/WX    TMP DP  RH WIND       PRES   REMARKS
HUNTINGTON     PTSUNNY   20   5  52 VRB5      30.28R
$$

WVZ015-111700-
West Central West Virginia

CITY           SKY/WX    TMP DP  RH WIND       PRES   REMARKS
CHARLESTON     PTSUNNY   19   3  49 NW9       30.25S WCI   8
$$

WVZ022-031-111700-
North Central West Virginia

CITY           SKY/WX    TMP DP  RH WIND       PRES   REMARKS
CLARKSBURG     PTSUNNY   15   3  59 W9        30.18S WCI   3
MORGANTOWN     CLOUDY    14   1  56 W9G20     30.17R WCI   2
$$

WVZ025-035-042-045-111700-
Southern West Virginia

CITY           SKY/WX    TMP DP  RH WIND       PRES   REMARKS
BECKLEY        CLOUDY    13   3  64 NW9       30.10R WCI   1
LOGAN          PTSUNNY   16   5  62 CALM      30.20R
BLUEFIELD        N/A     13   3  64 W14G23    30.07S WCI  -2
LEWISBURG        N/A     17   4  55 NW9G17    30.10S WCI   6
$$

WVZ047-111700-
Northern Mountains of West Virginia

CITY           SKY/WX    TMP DP  RH WIND       PRES   REMARKS
ELKINS           N/A     13  -1  54 W10G22    30.11S WCI   0
$$

WVZ052-111700-
Eastern Panhandle of West Virginia

CITY           SKY/WX    TMP DP  RH WIND       PRES   REMARKS
MARTINSBURG    PTSUNNY   21   1  41 W24G36    30.11S WCI   4
PETERSBURG       N/A     20   1  42 CALM      30.14S
$$



USA.gov is the U.S. government's official web portal to all federal, state and local government web resources and services.